Falfurrias, TX

4:32 PM CST on November 16, 2019 (GMT -0600)
Falfurrias

Weather History for KBKS - August, 2019

Change the Weather History Date:

Monday, August 12, 2019

  Actual Average (WUND) Record (WUND)
Temperature  
Mean Temperature 92 °F -  
Max Temperature 106 °F - - (-1)
Min Temperature 79 °F - - (-1)
Cooling Degree Days 28    
Growing Degree Days 42 (Base 50)    
Moisture  
Dew Point 74 °F    
Average Humidity 61    
Maximum Humidity 90    
Minimum Humidity 24    
Precipitation  
Precipitation 0.00 in - - ()
Sea Level Pressure  
Sea Level Pressure 29.89 in    
Wind  
Wind Speed 9 mph ()    
Max Wind Speed 21 mph    
Max Gust Speed 29 mph    
Visibility 10.0 miles    
Events      
Averages and records for this station are not official NWS values.
T = Trace of Precipitation, MM = Missing Value Source: Averaged Metar Reports

Daily Weather History Graph

Daily Weather History Graph

Search for Another Location

Airport or City:

Astronomy

Aug. 12, 2019 Rise Set
Actual Time 7:02 AM CDT 8:12 PM CDT
Civil Twilight 6:37 AM CDT 8:37 PM CDT
Nautical Twilight 6:08 AM CDT 9:06 PM CDT
Astronomical Twilight 5:38 AM CDT 9:36 PM CDT
Moon 6:31 PM CDT (8/12) 4:24 AM CDT (8/12)
Length of Visible Light 13h 59m
Length of Day
13h 10m
Waxing Gibbous, 93% of the Moon is Illuminated
Aug 12
Waxing Gibbous
Aug 15
Full
Aug 23
Last Quarter
Aug 30
New
Sep 5
First Quarter

Hourly Weather History & Observations

Time (CDT) Temp. Heat Index Dew Point Humidity Pressure Visibility Wind Dir Wind Speed Gust Speed Precip Events Conditions
12:15 AM 84.6 °F 94.7 °F 77.0 °F 78% 29.94 in 10.0 mi SSE 10.4 mph - N/A   Clear
12:35 AM 84.4 °F 94.2 °F 77.0 °F 78% 29.94 in 10.0 mi SE 6.9 mph - N/A   Clear
12:55 AM 84.0 °F 93.7 °F 77.0 °F 79% 29.94 in 10.0 mi SSE 8.1 mph - N/A   Clear
1:15 AM 83.7 °F 93.1 °F 77.0 °F 80% 29.93 in 10.0 mi SE 8.1 mph - N/A   Clear
1:35 AM 83.3 °F 92.4 °F 77.0 °F 81% 29.93 in 10.0 mi SSE 6.9 mph - N/A   Clear
1:55 AM 82.9 °F 91.8 °F 77.0 °F 82% 29.94 in 10.0 mi SE 5.8 mph - N/A   Clear
2:15 AM 82.6 °F 91.4 °F 77.2 °F 84% 29.93 in 10.0 mi SSE 4.6 mph - N/A   Scattered Clouds
2:35 AM 82.4 °F 90.9 °F 77.0 °F 84% 29.93 in 10.0 mi SSE 4.6 mph - N/A   Scattered Clouds
2:55 AM 82.0 °F 90.2 °F 77.2 °F 85% 29.92 in 10.0 mi SSE 3.5 mph - N/A   Scattered Clouds
3:15 AM 81.9 °F 90.0 °F 77.2 °F 86% 29.91 in 10.0 mi SSE 4.6 mph - N/A   Scattered Clouds
3:35 AM 81.5 °F 89.0 °F 77.0 °F 86% 29.91 in 10.0 mi SE 4.6 mph - N/A   Scattered Clouds
3:55 AM 81.5 °F 89.2 °F 77.2 °F 87% 29.91 in 10.0 mi ESE 3.5 mph - N/A   Clear
4:15 AM 81.5 °F 89.2 °F 77.4 °F 87% 29.91 in 10.0 mi SE 4.6 mph - N/A   Clear
4:35 AM 81.5 °F 89.2 °F 77.2 °F 87% 29.90 in 10.0 mi SE 3.5 mph - N/A   Clear
4:55 AM 80.6 °F 87.1 °F 77.0 °F 89% 29.90 in 10.0 mi ESE 4.6 mph - N/A   Clear
5:15 AM 80.1 °F 85.7 °F 76.6 °F 89% 29.90 in 10.0 mi ESE 4.6 mph - N/A   Clear
5:35 AM 79.9 °F - 76.5 °F 89% 29.91 in 10.0 mi East 4.6 mph - N/A   Clear
5:55 AM 79.7 °F - 76.5 °F 90% 29.91 in 10.0 mi ESE 4.6 mph - N/A   Scattered Clouds
6:15 AM 79.7 °F - 76.5 °F 90% 29.91 in 10.0 mi ESE 3.5 mph - N/A   Clear
6:35 AM 79.3 °F - 76.3 °F 90% 29.92 in 10.0 mi East 3.5 mph - N/A   Clear
6:55 AM 79.3 °F - 76.3 °F 90% 29.92 in 10.0 mi ESE 4.6 mph - N/A   Clear
7:15 AM 79.7 °F - 76.5 °F 90% 29.92 in 10.0 mi ESE 4.6 mph - N/A   Clear
7:35 AM 80.4 °F 86.8 °F 77.2 °F 90% 29.92 in 10.0 mi SE 6.9 mph - N/A   Clear
8:15 AM 83.3 °F 93.5 °F 77.9 °F 84% 29.93 in 10.0 mi SE 8.1 mph - N/A   Clear
8:35 AM 85.1 °F 96.7 °F 77.9 °F 79% 29.93 in 10.0 mi SSE 9.2 mph - N/A   Clear
8:55 AM 86.2 °F 98.3 °F 77.9 °F 76% 29.93 in 10.0 mi SSE 10.4 mph 17.3 mph N/A   Clear
9:15 AM 88.3 °F 100.6 °F 77.0 °F 69% 29.93 in 10.0 mi SSE 13.8 mph 20.7 mph N/A   Clear
9:35 AM 90.1 °F 102.4 °F 76.3 °F 64% 29.93 in 10.0 mi South 12.7 mph - N/A   Clear
9:55 AM 91.8 °F 102.8 °F 75.2 °F 58% 29.93 in 10.0 mi SSE 11.5 mph 20.7 mph N/A   Clear
10:15 AM 93.2 °F 103.7 °F 74.5 °F 54% 29.93 in 10.0 mi SSE 13.8 mph 18.4 mph N/A   Clear
10:35 AM 94.5 °F 103.9 °F 73.0 °F 50% 29.93 in 10.0 mi South 13.8 mph 20.7 mph N/A   Clear
10:55 AM 96.1 °F 104.9 °F 72.5 °F 46% 29.92 in 10.0 mi SSE 13.8 mph 19.6 mph N/A   Clear
11:15 AM 97.3 °F 104.9 °F 70.7 °F 42% 29.92 in 10.0 mi SSE 15.0 mph - N/A   Clear
11:35 AM 98.8 °F 106.6 °F 70.9 °F 40% 29.92 in 10.0 mi South 16.1 mph 24.2 mph N/A   Clear
11:55 AM 100.0 °F 107.0 °F 69.4 °F 37% 29.92 in 10.0 mi SSE 17.3 mph 20.7 mph N/A   Clear
12:15 PM 99.7 °F 105.6 °F 68.2 °F 36% 29.91 in 10.0 mi SSE 9.2 mph 18.4 mph N/A   Clear
12:35 PM 101.1 °F 106.3 °F 67.3 °F 33% 29.90 in 10.0 mi South 9.2 mph 19.6 mph N/A   Clear
12:55 PM 102.4 °F 108.0 °F 66.9 °F 32% 29.90 in 10.0 mi SSE 17.3 mph 21.9 mph N/A   Clear
1:15 PM 102.6 °F 106.9 °F 65.5 °F 30% 29.89 in 10.0 mi SSE 13.8 mph 19.6 mph N/A   Clear
1:35 PM 103.5 °F 107.8 °F 65.7 °F 29% 29.88 in 10.0 mi SE 16.1 mph 24.2 mph N/A   Clear
1:55 PM 105.3 °F 108.9 °F 63.9 °F 26% 29.87 in 10.0 mi SSE 15.0 mph 19.6 mph N/A   Clear
2:15 PM 105.1 °F 108.5 °F 63.9 °F 26% 29.86 in 10.0 mi ESE 9.2 mph 18.4 mph N/A   Clear
2:35 PM 105.1 °F 107.1 °F 61.9 °F 24% 29.85 in 10.0 mi South 12.7 mph 18.4 mph N/A   Clear
2:55 PM 106.2 °F 109.7 °F 63.3 °F 25% 29.85 in 10.0 mi SE 8.1 mph 18.4 mph N/A   Clear
3:15 PM 106.2 °F 109.7 °F 63.7 °F 25% 29.83 in 10.0 mi ESE 12.7 mph 20.7 mph N/A   Clear
3:35 PM 106.2 °F 108.9 °F 62.4 °F 24% 29.83 in 10.0 mi ESE 9.2 mph 16.1 mph N/A   Clear
3:55 PM 103.8 °F 114.5 °F 72.0 °F 36% 29.82 in 10.0 mi ESE 16.1 mph 23.0 mph N/A   Scattered Clouds
4:15 PM 104.2 °F 117.3 °F 73.6 °F 38% 29.82 in 10.0 mi East 16.1 mph 28.8 mph N/A   Scattered Clouds
4:35 PM 103.8 °F 113.5 °F 71.4 °F 35% 29.82 in 10.0 mi ESE 12.7 mph 21.9 mph N/A   Clear
4:55 PM 102.9 °F 115.2 °F 73.4 °F 39% 29.82 in 10.0 mi ESE 18.4 mph 24.2 mph N/A   Clear
5:15 PM 102.0 °F 114.0 °F 73.4 °F 40% 29.81 in 10.0 mi ESE 18.4 mph 24.2 mph N/A   Clear
5:35 PM 100.9 °F 112.3 °F 73.4 °F 41% 29.82 in 10.0 mi ESE 20.7 mph 26.5 mph N/A   Clear
5:55 PM 99.3 °F 111.0 °F 73.8 °F 44% 29.82 in 10.0 mi ESE 18.4 mph 27.6 mph N/A   Clear
6:15 PM 98.6 °F 110.0 °F 74.1 °F 45% 29.82 in 10.0 mi ESE 16.1 mph 24.2 mph N/A   Clear
6:55 PM 97.0 °F 108.5 °F 74.5 °F 48% 29.82 in 10.0 mi ESE 17.3 mph 24.2 mph N/A   Clear
7:15 PM 95.9 °F 107.4 °F 74.3 °F 50% 29.82 in 10.0 mi ESE 18.4 mph 23.0 mph N/A   Clear
7:35 PM 95.0 °F 104.5 °F 73.4 °F 49% 29.82 in 10.0 mi SE 13.8 mph 21.9 mph N/A   Clear
7:55 PM 93.7 °F 102.3 °F 72.7 °F 50% 29.83 in 10.0 mi SE 10.4 mph 21.9 mph N/A   Clear
8:15 PM 92.1 °F 101.1 °F 73.2 °F 54% 29.83 in 10.0 mi SE 15.0 mph 21.9 mph N/A   Clear
8:35 PM 90.9 °F 100.6 °F 74.5 °F 58% 29.84 in 10.0 mi SE 15.0 mph - N/A   Clear
8:55 PM 89.8 °F 100.3 °F 75.2 °F 62% 29.85 in 10.0 mi SE 15.0 mph 21.9 mph N/A   Clear
9:15 PM 89.1 °F 99.1 °F 75.0 °F 63% 29.85 in 10.0 mi SE 15.0 mph - N/A   Clear
9:35 PM 88.2 °F 98.5 °F 75.4 °F 66% 29.86 in 10.0 mi SE 12.7 mph 17.3 mph N/A   Clear
9:55 PM 87.6 °F 97.6 °F 75.6 °F 67% 29.86 in 10.0 mi SE 13.8 mph 20.7 mph N/A   Clear
10:15 PM 87.1 °F 96.8 °F 75.6 °F 68% 29.86 in 10.0 mi SE 11.5 mph 17.3 mph N/A   Clear
10:35 PM 86.4 °F 96.0 °F 75.6 °F 70% 29.87 in 10.0 mi Calm Calm - N/A   Clear
10:55 PM 86.0 °F 95.5 °F 75.7 °F 71% 29.88 in 10.0 mi SE 9.2 mph - N/A   Clear
11:15 PM 85.3 °F 95.0 °F 76.3 °F 74% 29.88 in 10.0 mi SE 9.2 mph - N/A   Clear
11:35 PM 85.1 °F 94.9 °F 76.5 °F 75% 29.89 in 10.0 mi Calm Calm - N/A   Clear
11:55 PM 84.4 °F 93.9 °F 76.3 °F 77% 29.89 in 10.0 mi Calm Calm - N/A   Clear